Location: Christianberg
(48.9086°N, 14.0209°E)
Time: 22:06:23
(UTC+00:00)

NOSS 3-1 (A) - Pass Details

Date: 20 June 2021
Orbit: 729 x 1483 km, 63.4° (Epoch: 23 July)

Event Time Altitude Azimuth Distance (km) Brightness Sun altitude
Exits shadow 00:42:42 14° 240° (WSW) 2,127 4.8 -14.5°
Maximum altitude 00:47:23 60° 319° (NW) 1,023 3.7 -14.2°
Drops below altitude 10° 00:53:53 10° 39° (NE) 2,843 7.3 -13.7°
Sets 00:56:49 0° 43° (NE) 3,923 8.2 -13.5°
